FW8793 Weather Reports


time (UTC)temp
F
wind
direction
speed
knots
gust
knots
rain 1hr
in
rain 24hr
in
rain mn
in
humidity
%
barometer
mb
20260509075001 52 215 0.9 3.5 0.00 0.00 0.00 84 1003.2
20260509074001 52 232 1.7 4.3 0.00 0.00 0.00 83 1003.4
20260509073003 51 167 1.7 6.1 0.00 0.00 0.00 83 1003.4
20260509070004 50 173 0.9 4.3 0.00 0.00 0.00 81 1003.9
20260509065005 49 207 0.9 2.6 0.00 0.00 0.00 80 1003.9
20260509064001 49 178 0.9 2.6 0.00 0.00 0.00 78 1003.9
20260509063000 48 203 0.9 2.6 0.00 0.00 0.00 75 1004.1
20260509062000 48 196 0.9 2.6 0.00 0.00 0.00 68 1004.3
20260509061001 48 197 0.9 2.6 0.00 0.00 0.00 61 1004.4
20260509060005 48 223 0.9 1.7 0.00 0.00 0.00 60 1004.4
20260509055000 48 179 0.9 2.6 0.00 0.00 0.00 57 1004.5
20260509054001 48 229 0.0 1.7 0.00 0.00 0.00 55 1004.6
20260509052002 48 165 0.9 2.6 0.00 0.00 0.00 54 1004.6
20260509051000 48 126 0.9 4.3 0.00 0.00 0.00 53 1004.6
20260509050004 48 106 1.7 4.3 0.00 0.00 0.00 52 1004.6
20260509045000 48 140 0.9 5.2 0.00 0.00 0.00 51 1004.7
20260509043000 49 98 1.7 3.5 0.00 0.00 0.00 49 1004.8
20260509042004 49 123 0.9 2.6 0.00 0.00 0.00 50 1004.9
20260509041001 49 105 0.9 3.5 0.00 0.00 0.00 49 1005.0
20260509040006 49 155 0.9 2.6 0.00 0.00 0.00 49 1005.1
20260509034002 49 128 0.9 1.7 0.00 0.00 0.00 50 1005.2
20260509033000 49 146 0.9 2.6 0.00 0.00 0.00 50 1005.3
20260509032001 48 130 0.9 3.5 0.00 0.00 0.00 50 1005.3
20260509031000 47 136 0.0 1.7 0.00 0.00 0.00 55 1005.5
20260509030004 47 153 0.0 1.7 0.00 0.00 0.00 56 1005.6
20260509025000 48 149 0.0 2.6 0.00 0.00 0.00 55 1005.6
20260509024001 47 167 0.0 1.7 0.00 0.00 0.00 49 1005.8
20260509023000 47 206 0.0 0.9 0.00 0.00 0.00 52 1005.9
20260509022000 47 236 0.0 0.0 0.00 0.00 0.00 51 1005.9
20260509021000 48 236 0.0 0.0 0.00 0.00 0.00 49 1005.9
20260509020004 48 236 0.0 0.0 0.00 0.00 0.00 57 1005.9
20260509015001 48 236 0.0 0.9 0.00 0.00 0.00 64 1005.9
20260509014000 49 236 0.0 0.0 0.00 0.00 0.00 60 1005.8
20260509013001 50 236 0.0 0.0 0.00 0.00 0.00 48 1005.7
20260509012000 51 236 0.0 0.0 0.00 0.00 0.00 55 1005.7
20260509011002 52 236 0.0 0.9 0.00 0.00 0.00 52 1005.7
20260509010004 53 236 0.0 0.0 0.00 0.00 0.00 48 1005.7
20260509005001 54 236 0.0 0.0 0.00 0.00 0.00 47 1005.7
20260509004002 55 236 0.0 0.0 0.00 0.00 0.00 37 1005.7
20260509003004 56 236 0.0 0.0 0.00 0.00 0.00 36 1005.7
20260509000005 58 239 0.9 2.6 0.00 0.00 0.00 29 1006.1
20260508234000 59 223 0.9 2.6 0.00 0.00 0.00 29 1006.4
20260508233005 59 221 0.9 2.6 0.00 0.00 0.00 33 1006.4
20260508232000 60 214 0.9 4.3 0.00 0.00 0.00 32 1006.5
20260508231001 60 248 1.7 7.0 0.00 0.00 0.00 30 1006.5
20260508230004 61 185 1.7 7.8 0.00 0.00 0.00 30 1006.6
20260508225002 61 265 0.9 7.0 0.00 0.00 0.00 34 1006.5
20260508224002 61 264 1.7 4.3 0.00 0.00 0.00 33 1006.4
20260508223002 61 236 1.7 5.2 0.00 0.00 0.00 32 1006.5
20260508221003 62 262 1.7 5.2 0.00 0.00 0.00 34 1006.6
20260508220004 63 223 1.7 4.3 0.00 0.00 0.00 33 1006.7
20260508215003 64 220 1.7 7.0 0.00 0.00 0.00 35 1006.6
20260508214005 64 191 1.7 5.2 0.00 0.00 0.00 34 1006.7
20260508212002 64 230 1.7 4.3 0.00 0.00 0.00 36 1006.8
20260508211001 65 228 1.7 4.3 0.00 0.00 0.00 32 1006.8
20260508210004 65 215 0.9 2.6 0.00 0.00 0.00 33 1006.9
20260508205001 64 236 1.7 5.2 0.00 0.00 0.00 37 1007.0
20260508204003 64 201 1.7 7.8 0.00 0.00 0.00 33 1007.1
20260508203001 65 265 1.7 4.3 0.00 0.00 0.00 32 1007.2
20260508202004 65 248 1.7 3.5 0.00 0.00 0.00 35 1007.3
20260508200005 65 196 1.7 8.7 0.00 0.00 0.00 37 1007.6
20260508195001 64 82 1.7 7.0 0.00 0.00 0.00 31 1007.7
20260508194002 64 271 1.7 7.0 0.00 0.00 0.00 37 1007.8
20260508193001 64 218 1.7 7.0 0.00 0.00 0.00 37 1007.8
20260508192000 64 212 1.7 4.3 0.00 0.00 0.00 37 1008.0
20260508191001 64 287 1.7 6.1 0.00 0.00 0.00 35 1008.0
20260508190002 64 251 1.7 7.0 0.00 0.00 0.00 38 1008.1
20260508185001 64 204 0.9 4.3 0.00 0.00 0.00 37 1008.2
20260508184006 63 250 2.6 6.1 0.00 0.00 0.00 38 1008.2
20260508181959 63 238 2.6 6.1 0.00 0.00 0.00 38 1008.4
20260508181001 63 232 1.7 5.2 0.00 0.00 0.00 39 1008.5
20260508175001 63 169 1.7 4.3 0.00 0.00 0.00 31 1008.7
20260508173001 63 227 2.6 7.8 0.00 0.00 0.00 36 1009.0
20260508172004 63 246 2.6 8.7 0.00 0.00 0.00 42 1009.1
20260508171001 62 215 1.7 7.0 0.00 0.00 0.00 37 1009.3
20260508170005 62 249 2.6 7.0 0.00 0.00 0.00 38 1009.3
20260508165001 62 236 1.7 7.0 0.00 0.00 0.00 39 1009.6
20260508164003 61 185 1.7 6.1 0.00 0.00 0.00 43 1009.7
20260508162001 61 225 0.9 3.5 0.00 0.00 0.00 42 1009.9
20260508161002 60 219 1.7 6.1 0.00 0.00 0.00 40 1009.9
20260508160006 60 213 1.7 6.1 0.00 0.00 0.00 41 1010.0
20260508155002 60 211 2.6 6.1 0.00 0.00 0.00 39 1010.1
20260508154000 60 197 1.7 5.2 0.00 0.00 0.00 43 1010.0
20260508153003 59 189 1.7 6.1 0.00 0.00 0.00 43 1010.1
20260508151002 58 123 2.6 6.1 0.00 0.00 0.00 49 1010.2
20260508150005 59 208 1.7 7.0 0.00 0.00 0.00 54 1010.3
20260508144000 57 221 1.7 4.3 0.00 0.00 0.00 55 1010.4
20260508142005 56 120 1.7 4.3 0.00 0.00 0.00 61 1010.5
20260508141001 56 117 1.7 3.5 0.00 0.00 0.00 64 1010.7
20260508140004 55 152 1.7 3.5 0.00 0.00 0.00 68 1010.7
20260508135001 54 181 1.7 3.5 0.00 0.00 0.00 69 1010.7
20260508133001 53 188 1.7 4.3 0.00 0.00 0.00 74 1010.7
20260508132002 52 170 0.9 2.6 0.00 0.00 0.00 77 1010.7
20260508131001 50 148 0.9 2.6 0.00 0.00 0.00 78 1010.9
20260508130005 49 125 0.9 1.7 0.00 0.00 0.00 77 1011.0
20260508125001 48 126 0.9 2.6 0.00 0.00 0.00 78 1011.0
20260508124002 47 180 0.9 1.7 0.00 0.00 0.00 79 1011.1
20260508122003 43 263 0.0 0.9 0.00 0.00 0.00 84 1010.9
20260508121000 41 304 0.0 0.9 0.00 0.00 0.00 86 1010.7
20260508120007 40 351 0.0 0.0 0.00 0.00 0.00 88 1010.6
20260508115000 39 351 0.0 0.0 0.00 0.00 0.00 91 1010.6
20260508114001 37 351 0.0 0.0 0.00 0.00 0.00 92 1010.5
20260508113004 36 351 0.0 0.0 0.00 0.00 0.00 93 1010.4
20260508112005 35 351 0.0 0.0 0.00 0.00 0.00 94 1010.3
20260508111000 34 351 0.0 0.0 0.00 0.00 0.00 94 1010.4
20260508110004 33 351 0.0 0.9 0.00 0.00 0.00 94 1010.3
20260508104002 32 351 0.0 0.0 0.00 0.00 0.00 92 1010.2
20260508103000 32 351 0.0 0.0 0.00 0.00 0.00 92 1010.0
20260508100004 32 351 0.0 0.0 0.00 0.00 0.00 92 1010.1
20260508095000 32 351 0.0 0.0 0.00 0.00 0.00 92 1010.2
20260508094003 32 351 0.0 0.0 0.00 0.00 0.00 91 1010.3
20260508093000 33 351 0.0 0.0 0.00 0.00 0.00 91 1010.2
20260508092002 33 351 0.0 0.0 0.00 0.00 0.00 91 1010.3
20260508091000 33 351 0.0 0.0 0.00 0.00 0.00 91 1010.4
20260508090007 34 351 0.0 0.0 0.00 0.00 0.00 91 1010.3
20260508085000 34 351 0.0 0.0 0.00 0.00 0.00 91 1010.3
20260508084000 34 351 0.0 0.0 0.00 0.00 0.00 91 1010.3
20260508083000 34 351 0.0 0.0 0.00 0.00 0.00 90 1010.3
20260508082000 34 351 0.0 0.0 0.00 0.00 0.00 90 1010.3
20260508081002 34 351 0.0 0.0 0.00 0.00 0.00 90 1010.4
20260508080004 34 351 0.0 0.0 0.00 0.00 0.00 89 1010.4